Back to catalog

STARLINK-36905

AliveCommunicationsVLEO
NORAD 68176·PAYLOAD·🇺🇸 United States

Launched Mar 14, 2026 from Vandenberg Space Force Base

Loading…

Next Passes (next 24 hours)

TLE

FreshSource: CelesTrak SupGP

Epoch: Sep 14, 2026, 15:16 UTC

1 68176C 26050K   26257.63659722 -.00003188  00000+0 -94202-4 0  2572
2 68176  53.1573 105.3099 0001260  98.2969 319.7170 15.34386123    18

Track STARLINK-36905 in real time with AllMySat

Download on the App Store